Regional Weather Roundup
Issued by NWS Wakefield, VA

Home | Current Version | Previous Version | Text Only | Print | Product List | Glossary On
Versions: 1 2 3 4 5 6 7 8 9 10 11 12 13 14 15 16 17 18 19 20 21 22 23 24 25 26 27 28 29 30 31 32 33 34 35 36 37 38 39 40 41 42 43 44 45 46 47 48 49 50
179
ASUS41 KAKQ 222015
RWRAKQ

REGIONAL WEATHER ROUNDUP
NATIONAL WEATHER SERVICE WAKEFIELD VA
400 PM EDT SUN OCT 22 2017

Note: "fair" indicates few or no clouds below 12,000 feet with no
significant weather and/or obstructions to visibility. * = Denotes
station may not report precipitation (e.g., rain,snow,etc.),
thunder or fog.

VAZ042-051-052>054-056-222100-
NORTHERN VIRGINIA

CITY           SKY/WX    TMP DP  RH WIND       PRES   REMARKS
WASH NATIONAL  PTSUNNY   76  54  46 S8        30.31F
DULLES         PTSUNNY   74  57  55 S9        30.31F
FORT BELVOIR   NOT AVBL
QUANTICO       SUNNY     75  60  59 VRB5      30.31F
FREDERICKSBRG* SUNNY     78  57  49 SE8       30.29F
STAFFORD*      SUNNY     76  55  47 SE5       30.34F
WARRENTON      SUNNY     78  51  38 SE7       30.30S
CULPEPER*      MOSUNNY   79  53  41 S7        30.30F
MANASSAS*      MOSUNNY   75  58  55 SE10      30.31F
LEESBURG*      MOSUNNY   77  59  53 SE10      30.31F
WINCHESTER     SUNNY     72  54  53 SE15      30.28F
FRONT ROYAL*   CLEAR     75  54  46 S10G16    30.27F
LURAY*         CLEAR     77  50  38 S9        30.28S
$$

VAZ048-049-060>072-079>083-222100-
CENTRAL AND SOUTH CENTRAL VIRGINIA

CITY           SKY/WX    TMP DP  RH WIND       PRES   REMARKS
RICHMOND       MOSUNNY   76  54  46 SE8       30.30F
CHESTERFIELD*  NOT AVBL
PETERSBURG*    SUNNY     76  55  47 S3        30.31S
HANOVER        SUNNY     76  57  51 VRB6      30.31F
TAPPAHANNOCK*  SUNNY     78  33  19 E5        30.32S
QUINTON*       FAIR      76  54  46 S8        30.31S
CHARLOTTSVILLE MOSUNNY   77  54  44 SE8       30.29S
GORDONSVILLE*  CLEAR     77  56  49 S3        30.29S
ORANGE*        SUNNY     75  55  50 CALM      30.29F
LOUISA*        SUNNY     75  55  50 S6        30.30S
BUMPASS*       FAIR      75  58  54 SE5       30.30S
FARMVILLE*     SUNNY     80  57  44 E8        30.27F
CREWE*         FAIR      78  57  48 SE9       30.29F
FORT PICKETT*  FAIR      77  55  46 SE5       30.30S
CHASE CITY*    FAIR      77  50  39 S5        30.29F
CLARKSVILLE*   FAIR      77  54  44 E9        30.28F
SOUTH HILL*    SUNNY     76  52  43 S5        30.35F
LAWRENCEVILLE* FAIR      77  51  40 CALM      30.29F
EMPORIA*       SUNNY     77  54  44 E5        30.32R
$$

VAZ088>098-222100-
SOUTHEAST VIRGINIA

CITY           SKY/WX    TMP DP  RH WIND       PRES   REMARKS
NORFOLK        SUNNY     75  61  61 E8        30.31F
VIRGINIA BEACH MOSUNNY   72  59  63 E9        30.31F
NORFOLK NAVAL  MOSUNNY   73  59  61 E15       30.32F
WEST POINT*    SUNNY     75  54  48 S6        30.32F
SALUDA*        FAIR      70  64  81 E8        30.32F
NEWPORT NEWS   SUNNY     74  60  61 E10       30.31F
LANGLEY AFB    NOT AVBL
FORT EUSTIS    NOT AVBL
WILLIAMSBURG*  SUNNY     79  57  47 SE5       30.32F
HR EXEC AP*    NOT AVBL
FRANKLIN*      SUNNY     78  51  38 SE3       30.30F
US460-WAKEFLD  SUNNY     77  52  41 VRB5      30.30F
$$

VAZ020-022-025-037-045-222100-
WEST CENTRAL AND SOUTHWEST VIRGINIA

CITY           SKY/WX    TMP DP  RH WIND       PRES   REMARKS
STAUNTON*      SUNNY     75  50  41 S8        30.31S
WAYNESBORO*    CLEAR     73  52  46 SE7       30.30F
HOT SPRINGS VA SUNNY     62  44  50 SE8       30.36F
LYNCHBURG      SUNNY     73  52  47 S10       30.29F
DANVILLE       SUNNY     78  50  37 VRB3      30.27F
SOUTH BOSTON*  FAIR      80  46  30 SE6       30.28S
MARTINSVILLE   SUNNY     74  52  46 SE3       30.30S
ROANOKE        CLOUDY    73  53  49 SE13      30.30F
BLACKSBURG     CLOUDY    72  50  46 SE12      30.32S
DUBLIN*        CLOUDY    74  47  37 SE9       30.29F
MARION*        CLOUDY    71  42  34 SE6       30.30S
HILLSVILLE*    CLOUDY    67  46  45 CALM      30.30F
RICHLANDS*     FAIR      72  29  20 SE9       30.25S
WISE*          CLOUDY    72  46  40 S7        30.26S
ABINGDON*      SUNNY     77  44  31 S13G20    30.23S
$$

MDZ021>025-VAZ099-100-222100-
SOUTHERN MARYLAND AND THE DELMARVA PENINSULA

CITY           SKY/WX    TMP DP  RH WIND       PRES   REMARKS
PATUXENT RIVER PTSUNNY   71  56  58 SE8       30.32F
BAY BRIDGE APT SUNNY     72  59  64 W6        30.33F
LEONARDTOWN    NOT AVBL
DOVER          MOSUNNY   70  55  60 E12       30.30R
GEORGETOWN     SUNNY     75  52  44 E9        30.35S
EASTON         MOSUNNY   77  46  33 S5        30.37F
CAMBRIDGE      SUNNY     75  50  41 VRB5      30.33F
SALISBURY      SUNNY     75  51  43 E6        30.34S
OCEAN CITY     SUNNY     69  61  75 SE6       30.36S
WALLOPS ISLAND SUNNY     71  62  73 SE6       30.35S
ACCOMACK*      SUNNY     73  59  61 SE6       30.33F
$$

NCZ012>017-030>032-222100-
NORTH CENTRAL AND EASTERN NORTH CAROLINA

CITY           SKY/WX    TMP DP  RH WIND       PRES   REMARKS
ROANOKE RAPIDS FAIR      77  55  47 S3        30.29F
RALEIGH        MOSUNNY   78  55  44 S6        30.28F
ELIZABETH CITY SUNNY     77  61  57 E9        30.31F
AHOSKIE*       SUNNY     77  52  42 CALM      30.30S
EDENTON*       SUNNY     78  64  61 CALM      30.30F
CURRITUCK*     SUNNY     74  62  67 E10       30.33S
KILL DEVIL HLS SUNNY     73  64  74 CALM      30.31S
MANTEO         SUNNY    N/A N/A N/A E10       30.32S
CAPE HATTERAS  CLOUDY    80  63  55 SE8       30.30F
TARBORO*       NOT AVBL
GOLDSBORO      MOSUNNY   81  60  49 E9        30.26F HAZE
WASHINGTON     SUNNY     80  60  50 S5        30.29S
GREENVILLE     SUNNY     81  59  47 E6        30.29F
NEW BERN       PTSUNNY   79  64  60 E9        30.29F
WILMINGTON     MOSUNNY   79  65  62 E10       30.27F
$$

VAZ048-222100-
ELSEWHERE

CITY           SKY/WX    TMP DP  RH WIND       PRES   REMARKS
HARRISBURG PA  MOSUNNY   77  48  35 SE6       30.29F
BALTIMORE      PTSUNNY   74  42  31 SE8       30.32F
ANNAPOLIS      SUNNY     70  63  78 SE8       30.32F
ANDREWS AFB    NOT AVBL
PHILADELPHIA   PTSUNNY   75  48  38 S7        30.34F
HENDERSON NC   SUNNY     75  49  39 SE5       30.29F
GREENSBORO     PTSUNNY   75  56  51 SE6       30.27F
ROCKY MOUNT    PTSUNNY   80  58  46 S6        30.29F
$$

VAZ100-222100-
MARINE

STATION/POSITION TIME  TEMP    WIND        PRES    WAVE   SWELL
                       AIR SEA DIR/SP/G            HT/PER HT/PER
                 (UTC) (F)     (DEG/KT/KT) (MB)    (FT/S) (FT/S)
BRANDYWINE LGT   1936   68     140/  8/  9 1028.4F
CAPE MAY NJ      1948   69 66  110/  6/  9 1027.6F
LEWES DE         1948   69 66  150/  6/  9 1027.8F
15NM E FENWICK I 1950   67 68   90/  6/  8 1028.4F   2/ 9   2/ 9
OCEAN-CITY-INLET 1936   69 68  140/  5/  7 1028.4S
WACHAPREAGUE VA  1948   70 70  110/  5/  8 1027.4F
THOMAS POINT MD  2000   67 68  150/  4/  4   N/A
GOOSES REEF MD   2000   70 69  210/  8/ 10 1027.9    1/ 2
COVE POINT MD    1948   68     170/  8/  9 1027.7F
SOLOMONS ISLAND  1948   70 70  120/  8/  9 1026.6F
BISHOPS HEAD MD  1948   69 70  280/  4/  5 1027.6F
PINEY POINT MD   1936          130/ 10/ 11   N/A
POTOMAC MD       2000   69 70  120/  6/  8 1026.4
CAMBRIDGE MD     1948   72 69              1027.9F
LEWISETTA VA     1936   68 68  110/ 10/ 11 1026.7F
RAPPAHANNOCK LGT 1948           20/  4/  4 1027.6F
STINGRAY PT      2000   70 70   90/  6/  6 1027.3    0
YORK RVR RNG VA  1948   70     130/  9/ 10 1027.2F
YORKTOWN VA      1948   71 71  100/  8/ 10 1026.4F
JAMESTOWN VA     2000      71  140/  4/  6   N/A     0
DOMINION TERM VA 1948   72      50/  2/  5 1026.7F
KIPTOPEKE VA     1948      68  100/  7/  9   N/A
CAPE HENRY VA    1948   70     100/  9/ 11   N/A
WILLOUBY STN VA  1936   70      70/ 10/ 12 1026.6F
S CRANEY ISL VA  1948   72      40/  9/ 11 1026.1F
CAPE HENRY BUOY  2000      71                N/A     2/ 9
1ST LANDING BUOY 2000   70 70              1026.6    1/ 3
CAPE CHARLES BUO 1951      71                N/A     2/ 8
64NM E OF VA BCH 1950   70 70  300/  4/  6 1027.4F   3/ 9   3/ 9
DUCK PIER NC     1948   72 70   70/  8/  9 1026.3F
44100 DUCK FRF   1951      71                N/A     3/25   2/25
44056 DUCK FRF   2000      70                N/A     2/ 8
OREGON INLET NC  1936   72 71   40/  6/  9 1026.5F
HATTERAS NC      1948   76 72   70/  5/  8 1026.0F
DIAMOND SHLS NC  1950   76 81   70/  6/  8 1025.9F   3/ 9   3/ 9
CAPE LOOKOUT NC  2000   76     110/  9/ 10 1024.9F
$$




USA.gov is the U.S. government's official web portal to all federal, state and local government web resources and services.